SCP
0 0 0 0 0 0 0 0 0 0 0 0 0 0 0 0 0 0 0 0 0 0 0 0 0 0 0 0 0 0 0 0 0 0 0 0 0 0 0 0 0 0 0
0 0 0 0 0 0 0 0 0 0 0 0 0 0 0 0 0 0 0 0 0 0 0 0 0 0 0 0 0 0 0 0 0 0 0 0 0 0 0 0 0 0 0
0 0 0 0 0 0 1 0 0 0 0 0 0 0 0 0 0 0 0 0 0 0 0 0 0 0 0 0 0 0 0 0 0 0 0 0 0 0 0 0 0 0 0
0 0 0 0 0 1 1 1 1 0 0 0 0 0 0 0 0 0 0 0 0 0 0 0 0 0 0 0 0 0 0 0 0 0 0 0 0 0 0 0 0 0 0
0 0 0 0 1 1 1 1 1 0 0 0 0 0 0 0 0 0 0 0 0 0 0 0 0 0 0 0 0 0 0 0 0 0 0 0 0 0 0 0 0 0 0
0 0 0 0 1 1 1 1 1 0 0 0 0 0 0 0 0 0 0 0 0 0 0 0 0 0 0 0 0 0 0 0 0 0 0 0 0 0 0 0 0 0 0
0 0 0 0 0 1 1 1 1 0 0 0 0 0 0 0 0 0 0 0 0 0 0 0 0 0 0 0 0 0 0 0 0 0 0 0 0 0 0 0 0 0 0
0 0 0 0 0 0 1 1 0 0 0 0 0 0 0 0 0 0 0 0 0 0 0 0 0 0 0 0 0 0 0 0 0 0 0 0 0 0 0 0 0 0 0
0 0 0 0 0 0 0 0 0 0 0 0 0 0 0 0 0 0 0 0 0 0 0 0 0 0 0 0 0 0 0 0 0 0 0 0 0 0 0 0 0 0 0
0 0 0 0 0 0 0 0 0 0 0 0 0 0 0 0 0 0 0 0 0 0 0 0 0 0 0 0 0 0 0 0 0 0 0 0 0 0 0 0 0 0 0
0 0 0 0 0 0 0 0 0 0 0 0 0 0 0 0 0 0 0 0 0 0 0 0 0 0 0 0 0 0 0 0 0 0 0 0 0 0 0 0 0 0 0
0 0 0 0 0 0 0 0 0 0 0 0 0 0 0 0 0 0 0 0 0 0 0 0 0 0 0 0 0 0 0 0 0 0 0 0 0 0 0 0 0 0 0
0 0 0 0 0 0 0 0 0 0 0 0 0 0 0 0 0 0 0 0 0 0 0 0 0 0 0 0 0 0 0 0 0 0 0 0 0 0 0 0 0 0 0
0 0 0 0 0 0 0 0 0 0 0 0 0 0 0 0 0 0 0 0 0 0 0 0 0 0 0 0 0 0 0 0 0 0 0 0 0 0 0 0 0 0 0
0 0 0 0 0 0 0 0 0 0 0 0 0 0 0 0 0 0 0 0 0 0 0 0 0 0 0 0 0 0 0 0 0 0 0 0 0 0 0 0 0 0 0
0 0 0 0 0 0 0 0 0 0 0 0 0 0 0 0 0 0 0 0 0 0 0 0 0 0 0 0 0 0 0 0 0 0 0 0 0 0 0 0 0 0 0
0 0 0 0 0 0 0 0 0 0 0 0 0 0 0 0 0 0 0 0 0 0 0 0 0 0 0 0 0 0 0 0 0 0 0 0 0 0 0 0 0 0 0
0 0 0 0 0 0 0 0 0 0 0 0 0 0 0 0 0 0 0 0 0 0 0 0 0 0 0 0 0 0 0 0 0 0 0 0 0 0 0 0 0 0 0
0 0 0 0 0 0 0 0 0 0 0 0 0 0 0 0 0 0 0 0 0 0 0 0 0 0 0 0 0 0 0 0 0 0 0 0 0 0 0 0 0 0 0
0 0 0 0 0 0 0 0 0 0 0 0 0 0 0 0 0 0 0 0 0 0 0 0 0 0 0 0 0 0 0 0 0 0 0 0 0 0 0 0 0 0 0
0 0 0 0 0 0 0 0 0 0 0 0 0 0 0 0 0 0 0 0 0 0 0 0 0 0 0 0 0 0 0 0 0 0 0 0 0 0 0 0 0 0 0
0 0 0 0 0 0 0 0 0 0 0 0 0 0 0 0 0 0 0 0 0 0 0 0 0 0 0 0 0 0 0 0 0 0 0 0 0 0 0 0 0 0 0
0 0 0 0 0 0 0 0 0 0 0 0 0 0 0 0 0 0 0 0 0 0 0 0 0 0 0 0 0 0 0 0 0 0 0 0 0 0 0 0 0 0 0
0 0 0 0 0 0 0 0 0 0 0 0 0 0 0 0 0 0 0 0 0 0 0 0 0 0 0 0 0 0 0 0 0 0 0 0 0 0 0 0 0 0 0
0 0 0 0 0 0 0 0 0 0 0 0 0 0 0 0 0 0 0 0 0 0 0 0 0 0 0 0 0 0 0 0 0 0 0 0 0 0 0 0 0 0 0
0 0 0 0 0 0 0 0 0 0 0 0 0 0 0 0 0 0 0 0 0 0 0 0 0 0 0 0 0 0 0 0 0 0 0 0 0 0 0 0 0 0 0
Wind_Speed
2 2 5 8 9 9 10 10 10 10 10 10 11 11 11 11 11 11 11 11 10 10 10 10 11 11 12 12 12 13 13 13 13 13 12 11 11 12 12 12 11 8 13
3 2 6 7 9 9 9 9 9 9 9 10 10 10 10 10 10 10 10 10 10 10 10 10 10 11 11 11 11 12 12 12 12 12 10 9 10 11 12 11 10 7 12
1 2 4 6 8 8 8 8 8 9 9 9 9 9 9 9 9 9 9 9 9 9 10 10 10 10 10 11 10 11 11 11 11 10 8 4 6 11 11 10 10 11 11
2 2 3 5 7 7 8 8 8 8 8 8 8 8 9 9 8 8 8 8 8 9 9 9 10 9 10 10 9 10 10 9 7 6 3 3 3 9 10 10 10 10 10
3 2 3 4 5 6 7 7 7 7 7 7 8 8 8 8 8 8 8 8 8 8 9 9 9 10 9 9 9 9 8 7 6 5 3 3 3 8 9 9 9 9 9
3 2 2 4 4 4 5 6 6 6 6 6 7 7 8 8 8 8 8 8 7 8 9 9 10 10 9 8 8 7 6 6 5 4 3 3 2 7 9 8 8 8 8
4 3 2 4 3 3 3 4 5 5 6 6 6 7 8 8 8 8 8 8 9 9 10 10 10 10 9 8 7 6 5 4 4 4 3 3 3 8 8 8 8 7 8
5 4 4 4 3 2 2 2 3 4 5 5 5 6 7 7 8 8 9 9 10 11 11 11 10 10 9 8 7 5 4 3 5 4 4 3 6 8 8 7 7 6 6
6 5 5 4 3 3 2 1 2 3 4 4 5 5 6 6 7 8 9 10 11 11 11 11 11 11 10 8 7 5 3 3 3 2 4 3 7 8 8 7 6 6 5
7 6 5 5 4 3 2 2 2 4 4 4 4 5 6 6 7 8 8 9 10 11 11 11 11 11 10 9 7 5 3 2 2 3 2 4 8 9 8 7 6 5 5
7 6 5 5 4 4 3 3 2 3 4 4 4 5 5 4 4 5 7 9 10 10 11 12 12 11 9 8 8 6 3 1 2 2 3 6 10 9 9 8 7 6 5
6 6 5 5 4 4 4 3 2 2 2 3 3 3 3 3 3 5 7 10 10 10 11 12 12 11 7 4 5 5 2 3 2 3 4 9 11 11 10 9 8 7 6
3 4 5 5 5 4 3 2 2 1 2 2 3 4 3 3 3 3 3 5 6 7 6 7 7 5 5 4 4 4 4 3 3 3 4 10 12 12 11 10 9 9 8
4 4 5 4 4 4 3 3 2 2 2 2 3 4 3 2 3 3 3 4 4 4 4 4 4 5 6 6 6 5 5 4 3 3 5 11 12 13 13 12 11 10 10
4 5 5 4 4 4 4 3 3 2 3 3 3 4 4 3 4 4 4 4 5 4 5 5 5 6 6 6 6 7 7 7 6 5 4 11 13 13 13 13 13 12 11
4 5 5 5 4 4 3 3 3 3 3 3 3 4 4 4 4 4 5 5 5 5 6 6 7 6 6 6 7 8 8 7 6 6 5 8 13 13 13 14 14 13 13
4 5 6 5 5 4 4 4 3 3 3 3 3 4 4 4 5 5 5 5 6 6 6 5 6 5 5 6 7 8 7 7 7 7 7 6 7 12 14 16 15 15 14
4 5 6 6 6 5 5 5 4 4 3 3 3 3 4 5 5 4 5 5 5 5 5 6 6 6 6 6 6 6 6 6 7 7 7 7 6 7 11 15 15 15 15
4 5 6 6 6 6 5 5 4 4 4 3 3 3 4 5 5 4 4 5 5 5 5 6 6 6 6 6 6 5 5 5 6 7 7 8 8 7 7 11 14 14 14
5 5 6 6 6 6 4 4 4 4 4 3 3 4 5 4 4 4 4 5 5 4 5 5 6 6 5 5 5 5 5 5 5 6 7 7 7 9 8 8 8 10 14
6 7 6 6 6 5 3 3 3 4 4 4 4 4 5 4 4 4 4 4 5 5 6 7 5 6 5 3 3 3 4 5 6 6 6 6 7 8 8 9 7 7 7
6 7 7 6 6 5 4 3 3 3 3 3 4 4 4 4 4 4 4 4 5 5 6 6 5 4 4 4 3 2 3 3 5 7 6 7 8 7 8 10 9 8 7
6 7 7 7 7 6 5 3 3 2 2 3 4 4 4 4 4 4 5 4 5 5 5 6 6 7 5 4 4 4 4 5 3 3 7 7 7 7 7 7 9 9 9
6 6 6 7 7 6 5 3 3 3 3 4 4 4 5 5 4 4 4 5 5 4 5 6 6 5 5 5 4 4 3 2 3 3 3 5 7 8 8 7 7 9 9
5 6 6 6 6 6 6 4 3 3 3 3 3 4 5 4 4 4 4 4 4 4 5 5 5 5 5 5 4 3 4 3 3 3 4 3 3 5 6 7 7 7 8
5 5 6 6 6 7 6 5 4 4 5 5 5 4 4 3 3 4 4 3 3 3 4 4 5 5 5 5 4 4 3 3 4 5 6 5 5 4 5 5 6 6 6
Wind_Direction
299 248 155 147 139 136 135 138 136 133 130 127 124 122 120 121 122 122 122 123 123 122 122 120 117 113 111 107 105 104 101 98 96 91 84 84 92 95 92 87 83 78 85
247 224 156 147 143 140 139 140 141 142 141 138 135 133 131 131 131 132 132 131 130 129 128 126 122 120 116 113 110 109 107 104 100 94 83 77 87 93 93 94 91 90 87
78 150 150 144 143 141 142 142 144 149 150 147 146 145 144 144 142 142 141 140 139 136 134 132 127 122 121 119 117 116 115 112 105 96 86 76 91 97 96 95 95 93 92
85 116 134 140 145 144 144 146 148 152 158 158 156 156 156 155 154 153 151 149 146 143 139 136 132 129 128 126 126 124 122 119 108 103 88 81 93 106 104 102 99 95 93
69 81 107 124 142 148 150 152 156 159 164 166 165 167 168 165 165 164 163 157 152 148 145 143 139 137 135 134 134 131 128 117 100 104 107 99 94 112 108 104 103 97 94
53 57 89 101 131 147 155 159 165 168 172 172 175 178 178 176 175 173 167 161 158 154 153 151 149 147 146 146 145 138 130 115 101 112 122 125 120 121 115 110 107 105 101
42 37 61 81 103 132 151 164 174 179 183 184 185 189 190 189 186 181 174 170 167 165 164 161 159 157 158 161 159 149 129 117 123 134 142 145 150 136 126 121 117 113 108
41 34 36 38 58 79 128 170 183 190 195 197 199 201 203 201 194 189 183 177 177 176 174 170 167 166 168 174 174 162 133 118 126 142 151 163 160 145 137 133 128 125 119
37 34 24 18 21 20 6 223 205 207 211 211 211 210 213 212 205 196 189 187 186 185 182 178 176 175 177 183 186 175 154 130 131 155 165 175 168 155 149 147 146 143 138
30 26 18 11 11 2 341 318 269 238 229 226 222 219 218 219 215 206 195 194 193 191 188 185 185 185 185 188 193 189 179 148 157 182 180 189 181 169 163 164 163 158 154
17 9 8 6 0 352 334 334 307 262 242 237 231 225 219 218 214 207 203 199 199 197 194 194 193 191 190 194 197 197 188 166 178 192 193 197 188 182 178 178 180 180 174
359 353 359 356 348 341 334 332 310 286 260 241 234 226 220 217 217 214 208 204 203 201 200 201 199 195 188 193 205 202 191 190 197 206 208 203 196 193 189 189 192 195 193
337 344 346 341 339 338 329 320 307 299 276 258 242 227 223 217 218 215 203 203 204 203 202 204 201 195 189 190 200 206 205 200 204 212 214 209 204 203 198 197 200 204 205
345 337 335 334 334 330 325 311 294 292 277 262 251 238 222 216 215 211 206 203 200 199 198 197 196 197 198 200 202 211 214 210 209 209 216 213 209 209 206 204 206 210 211
340 331 326 327 331 325 322 313 307 285 275 268 253 239 228 222 220 215 212 205 205 200 198 198 201 202 206 209 211 213 219 219 218 211 214 213 210 211 212 211 213 214 217
333 325 320 323 322 321 316 307 302 298 290 283 272 255 235 227 226 219 215 212 210 205 203 203 205 206 211 213 217 217 219 218 221 216 213 214 215 212 213 215 217 220 221
329 327 323 318 323 322 313 304 303 296 294 284 277 266 253 238 227 223 217 215 215 208 204 205 210 210 214 217 222 222 220 218 218 216 212 210 214 217 216 218 220 222 224
333 332 325 328 327 320 312 303 298 293 290 282 279 275 266 255 239 226 223 221 218 209 205 207 208 212 219 220 221 223 221 219 220 218 215 212 210 213 218 220 221 223 225
335 329 326 323 319 314 308 303 296 292 287 285 283 276 269 261 249 232 228 228 218 211 211 214 213 212 218 220 222 223 221 222 222 219 218 216 213 211 211 218 220 222 225
340 331 326 324 320 316 312 311 305 299 292 288 283 279 275 266 254 242 235 227 216 215 214 215 217 217 218 215 223 228 223 224 223 223 222 220 216 214 211 213 216 225 226
349 343 332 327 323 325 324 318 308 299 295 294 283 282 280 275 264 246 246 233 219 218 219 215 213 216 222 200 206 241 247 231 228 227 222 222 222 218 212 214 213 213 221
339 337 335 330 322 317 306 293 276 278 278 279 290 291 287 281 271 261 249 241 228 225 226 219 211 214 221 194 185 195 243 252 239 230 221 220 225 222 220 217 213 214 215
338 333 331 327 324 318 309 303 305 300 297 304 312 307 299 293 282 271 260 250 238 225 225 223 214 211 219 212 193 188 199 222 239 240 224 222 220 220 225 219 216 218 217
330 328 328 328 329 325 322 323 312 301 288 284 294 295 298 293 288 278 266 256 250 239 234 229 226 219 211 216 217 221 222 195 198 249 255 231 223 222 222 223 220 220 218
329 331 329 331 333 331 327 325 315 305 289 291 297 299 302 303 300 298 283 263 251 244 241 239 230 226 220 220 213 206 224 236 227 224 249 244 235 228 223 224 225 222 218
328 335 337 337 336 337 336 334 328 313 312 317 318 315 315 315 316 319 308 293 277 260 246 243 239 229 227 231 227 216 208 212 217 222 238 239 238 235 227 226 226 226 221